Location: Sluknov
(51.0170°N, 14.4670°E)
Time: 09:59:03
(UTC+01:00)

ARIANE 6 FM1 Upper Stage - Pass Details

Date: 21 February 2026
Orbit: 523 x 607 km, 62.0° (Epoch: 7 March)

Event Time Altitude Azimuth Distance (km) Brightness Sun altitude
Rises 18:37:30 0° 304° (NW) 2,659 7.1 -11.5°
Reaches altitude 10° 18:40:05 10° 288° (WNW) 1,766 6.4 -11.9°
Maximum altitude 18:43:03 21° 239° (WSW) 1,231 5.2 -12.3°
Drops below altitude 10° 18:46:02 10° 190° (S) 1,769 5.3 -12.8°
Sets 18:48:37 0° 174° (S) 2,664 6.1 -13.2°
